Regional Weather Roundup
Issued by NWS Wakefield, VA

Home | Current Version | Previous Version | Text Only | Print | Product List | Glossary On
Versions: 1 2 3 4 5 6 7 8 9 10 11 12 13 14 15 16 17 18 19 20 21 22 23 24 25 26 27 28 29 30 31 32 33 34 35 36 37 38 39 40 41 42 43 44 45 46 47 48 49 50
000
ASUS41 KAKQ 261510
RWRAKQ

REGIONAL WEATHER ROUNDUP
NATIONAL WEATHER SERVICE WAKEFIELD VA
1100 AM EDT SAT JUL 26 2014

Note: "fair" indicates few or no clouds below 12,000 feet with no
significant weather and/or obstructions to visibility. * = Denotes
station may not report precipitation (e.g., rain,snow,etc.),
thunder or fog.

VAZ042-051-052>054-056-261600-
NORTHERN VIRGINIA

CITY           SKY/WX    TMP DP  RH WIND       PRES   REMARKS
WASH NATIONAL  CLOUDY    78  65  63 W3        30.01S
DULLES         CLOUDY    77  61  57 VRB3      30.00F
FORT BELVOIR   PTSUNNY   76  67  71 W5        30.01S
QUANTICO       CLOUDY    75  66  73 CALM      30.01S
FREDERICKSBRG* CLOUDY    76  69  79 NW3       30.00F
STAFFORD*      PTSUNNY   73  73  99 CALM      30.04F
WARRENTON      PTSUNNY   76  72  89 CALM      30.01F
CULPEPER*      PTSUNNY  N/A N/A N/A CALM      30.01F
MANASSAS*      CLOUDY    75  70  83 CALM      30.01S
LEESBURG*      MOSUNNY   79  64  61 NW3       30.01F
WINCHESTER     MOSUNNY   79  55  44 NW6       30.02S
$$

VAZ048-049-060>072-079>083-261600-
CENTRAL AND SOUTH CENTRAL VIRGINIA...AND NORTH CENTRAL NORTH CAROLINA

CITY           SKY/WX    TMP DP  RH WIND       PRES   REMARKS
RICHMOND       PTSUNNY   82  70  66 SW10      30.01F
CHESTERFIELD*  PTSUNNY   82  64  54 SW9       30.03F
HANOVER        PTSUNNY   82  70  66 SW8       30.02S
TAPPAHANNOCK*  PTSUNNY   80  67  62 S7        30.02S
CHARLOTTSVILLE PTSUNNY   76  68  76 CALM      30.01F
ORANGE*        CLOUDY    73  68  83 CALM      30.03S
LOUISA*        PTSUNNY   75  70  83 CALM      30.01S
FARMVILLE*     MOSUNNY   82  70  65 S3        29.99F
SOUTH HILL*    CLOUDY    79  75  89 S6        30.09S
ROANOKE RAPIDS CLOUDY    82  72  69 S3        30.04R
RALEIGH        CLOUDY    77  71  82 SW5       30.05S
$$

VAZ088>098-261600-
SOUTHEAST VIRGINIA

CITY           SKY/WX    TMP DP  RH WIND       PRES   REMARKS
NORFOLK        SUNNY     83  64  52 VRB7      30.03S
VIRGINIA BEACH MOSUNNY   83  66  56 VRB6      30.02F
NORFOLK NAVAL  MOSUNNY   82  65  56 SW6       30.04F
WEST POINT*    SUNNY     83  68  61 S8        30.03F
NEWPORT NEWS   SUNNY     84  66  54 S10       30.03F
LANGLEY AFB    SUNNY     82  65  58 S8        30.02F
FORT EUSTIS    SUNNY     80  67  63 S8        30.01F
WILLIAMSBURG*  SUNNY     84  72  65 S9        30.03F
FRANKLIN*      MOSUNNY   81  70  69 S5        30.03S
WAKEFIELD      PTSUNNY   82  70  66 SW7       30.02F
$$

VAZ020-022-025-037-045-261600-
WESTERN AND SOUTHWEST VIRGINIA

CITY           SKY/WX    TMP DP  RH WIND       PRES   REMARKS
STAUNTON*      PTSUNNY   75  64  68 CALM      30.05F
HOT SPRINGS VA SUNNY     66  56  70 W9        30.17S
LYNCHBURG      MOSUNNY   80  68  66 VRB5      30.05S
DANVILLE       MOSUNNY   82  71  69 W6        30.03F
MARTINSVILLE   MOSUNNY   83  66  55 CALM      30.07S
ROANOKE        PTSUNNY   81  62  52 SW5       30.06S
BLACKSBURG     SUNNY     77  64  65 W5          N/A
DUBLIN*        SUNNY     78  61  55 W10G17    30.11S
MARION*        MOSUNNY  N/A N/A N/A SW9       30.16R
HILLSVILLE*    MOSUNNY   74  60  60 W12       30.13S
RICHLANDS*     SUNNY     74  61  63 W8        30.13F
WISE*          SUNNY     73  57  56 S6        30.15R
ABINGDON*      MOSUNNY   77  64  63 W9        30.12S
$$

MDZ021>025-VAZ099-100-261600-
SOUTHERN MARYLAND AND THE DELMARVA PENINSULA

CITY           SKY/WX    TMP DP  RH WIND       PRES   REMARKS
PATUXENT RIVER PTSUNNY   78  69  73 SW9       30.00S
BAY BRIDGE APT   N/A     75  68  78 SW8       30.00S
LEONARDTOWN    MOSUNNY   77  66  69 S9        30.01F
DOVER          CLOUDY    75  69  80 SW6       29.99F
GEORGETOWN     PTSUNNY   79  67  66 S14       30.01F
EASTON         PTSUNNY   77  72  83 SW5       30.03F
CAMBRIDGE      PTSUNNY   79  68  69 SW9       29.99F
SALISBURY      NOT AVBL
OCEAN CITY     PTSUNNY   78  67  68 S7        30.02F
WALLOPS ISLAND MOSUNNY   81  68  64 S12G21    30.03F
ACCOMACK*        N/A     79  64  61 S6        30.02F
$$

NCZ012>017-030>032-261600-
EASTERN NORTH CAROLINA

CITY           SKY/WX    TMP DP  RH WIND       PRES   REMARKS
ELIZABETH CITY SUNNY     81  63  54 SE6       30.03F
AHOSKIE*       SUNNY     81  69  68 SE3       30.03F
EDENTON*       SUNNY     81  67  62 SE5       30.03F
CURRITUCK*     SUNNY     84  63  48 E5        30.04F
KILL DEVIL HLS SUNNY     81  63  54 E5        30.03S
MANTEO         NOT AVBL
CAPE HATTERAS  PTSUNNY   84  73  69 NE9       30.02F
GOLDSBORO      PTSUNNY   82  75  78 E5        30.02R
WASHINGTON     MOSUNNY   80  72  76 CALM      30.04R
GREENVILLE     MOSUNNY   81  72  74 CALM      30.05S
NEW BERN       MOSUNNY   85  72  65 CALM      30.04S
WILMINGTON     MOSUNNY   85  74  69 CALM      30.03R
$$

VAZ048-261600-
ELSEWHERE

CITY           SKY/WX    TMP DP  RH WIND       PRES   REMARKS
HARRISBURG PA  MOSUNNY   74  61  63 W3        30.00F
BALTIMORE      CLOUDY    74  66  76 W5        29.99S
ANNAPOLIS      CLOUDY    76  68  76 SW5       30.00S
ANDREWS AFB    CLOUDY    75  68  77 W6        30.00F
WILMINGTON DE  PTSUNNY   76  67  73 SW8       30.00F
PHILADELPHIA   CLOUDY    75  66  73 CALM      30.01F
WILDWOOD NJ*   CLOUDY    81  63  54 S9        30.02F
ATLANTIC CITY  CLOUDY    77  65  66 SW7       30.00F
HENDERSON NC   CLOUDY    78  71  79 S3        30.04F
GREENSBORO     PTSUNNY   81  70  69 NW6       30.04F
ROCKY MOUNT    CLOUDY    80  72  76 CALM      30.04S
FAYETTEVILLE   MOSUNNY   82  72  71 SW3       30.03S
CHARLOTTE      MOSUNNY   80  71  74 CALM      30.05S
$$

VAZ100-261600-
MARINE

STATION/POSITION TIME  TEMP    WIND        PRES    WAVE   SWELL
                       AIR SEA DIR/SP/G            HT/PER HT/PER
                 (UTC) (F)     (DEG/KT/KT) (MB)    (FT/S) (FT/S)
44066 TX TWR #4  1500   73 74  240/  6/  8 1016.6F   2/ 8   2/ 8
CAPE MAY NJ      1500   75 76  170/ 10/ 12 1015.7F
LEWES DE         1500   78 73  210/  5/  9 1015.8F
15NM E FENWICK I 1500   76 76              1016.6F   2/ 7
OCEAN-CITY-INLET 1500   74 72  200/  7/  9 1016.2S
WACHAPREAGUE VA  1500   78 79  190/  9/ 12 1016.6S
THOMAS POINT MD  1500   74 79  230/  9/ 11 1016.3F
GOOSES REEF MD   1500   77     220/ 10/ 12 1016.3S
COVE POINT MD    1500   77     220/  8/  9 1015.7F
SOLOMONS ISLAND  1500      80                N/A
BISHOPS HEAD MD  1500   77 77  190/ 14/ 16 1015.8S
PINEY POINT MD   1500          230/  8/  9   N/A
POTOMAC MD       1500   76     220/ 10/ 12 1015.5S
CAMBRIDGE MD     1500   79 80  190/  8/ 12 1015.6S
LEWISETTA VA     1500   77 79  240/  9/ 10 1015.9S
RAPPAHANNOCK LGT 1500          180/ 14/ 16 1017.0F
STINGRAY PT      1500   78     200/ 12/ 16 1017.1S
YORK RVR RNG VA  1500   79     200/  7/  9 1016.1F
YORKTOWN VA      1500   79 80  230/  9/ 11 1016.2F
JAMESTOWN VA     1500   78     200/  6/ 10   N/A
DOMINION TERM VA 1500   78     210/  5/  6 1016.9S
KIPTOPEKE VA     1500      81  190/  9/ 10   N/A
CHES BAY BRIDGE  1500   79 74  150/  3/  4 1016.3S
CAPE HENRY VA    1500   78     120/  9/ 12 1015.7F
WILLOUBY STN VA  1500          220/  7/  8 1016.1S
S CRANEY ISL VA  1500          190/  4/  6 1016.7F
CAPE HENRY BUOY  1500      77                N/A     2/ 7
1ST LANDING BUOY 1500   78     130/  8/ 10 1016.5F
CAPE CHARLES BUO 1500      77                N/A     2/ 7
OFFSHORE WE BUOY 1500      78                N/A     2/ 8
64NM E OF VA BCH 1500   77 78  100/  4/  6 1016.8F   2/ 7   2/ 7
DUCK PIER NC     1500   79 77  110/  9/ 10 1016.4S
44056 DUCK FRF   1500                        N/A     2/ 7
OREGON INLET NC  1500   78 78   70/  7/  9 1017.2R
HATTERAS NC      1500   80 80   60/  7/ 10 1017.0S
DIAMOND SHLS NC  1500          VRB  8/ 10  1016.6R   2/ 7   2/ 7
CAPE LOOKOUT NC  1400   81      90/  4/  4 1016.5R
$$


USA.gov is the U.S. government's official web portal to all federal, state and local government web resources and services.